FFT3073 KRDU-KCLE

Flight info

Callsign FFT3073
Flight time N/A
Altitude 38000
Route LWOOD5 DANCO HVQ JANYS ROLLN2
Aircraft A21N/M-SDE3FGHIRWY/LB1

Departure

Time N/A
Airport Raleigh-Durham International Airport (KRDU)

Arrival

Time 2026-05-04 22:14
Airport Cleveland Hopkins International Airport (KCLE)
Time Latitude Longitude Altitude Speed Heading
2026-05-04 21:29 37.62947 -81.16098 38001 ft 405 kts 323°
2026-05-04 21:29 37.67636 -81.20015 38005 ft 405 kts 323°
2026-05-04 21:30 37.72348 -81.23958 38003 ft 406 kts 323°
2026-05-04 21:30 37.77031 -81.27882 38000 ft 406 kts 323°
2026-05-04 21:31 37.84104 -81.33821 37983 ft 407 kts 323°
2026-05-04 21:32 37.88840 -81.37805 37974 ft 408 kts 323°
2026-05-04 21:32 37.93556 -81.41779 37964 ft 408 kts 323°
2026-05-04 21:33 37.98348 -81.45821 37961 ft 408 kts 323°
2026-05-04 21:33 38.03074 -81.49817 37952 ft 408 kts 323°
2026-05-04 21:34 38.07867 -81.53876 37935 ft 409 kts 323°
2026-05-04 21:34 38.12598 -81.57890 37928 ft 409 kts 323°
2026-05-04 21:35 38.17329 -81.61912 37924 ft 410 kts 323°
2026-05-04 21:35 38.22110 -81.65982 37916 ft 410 kts 322°
2026-05-04 21:36 38.26825 -81.70003 37910 ft 409 kts 323°
2026-05-04 21:36 38.31776 -81.73663 37909 ft 413 kts 330°
2026-05-04 21:37 38.37157 -81.76439 37908 ft 418 kts 338°
2026-05-04 21:37 38.42831 -81.78218 37912 ft 423 kts 346°
2026-05-04 21:38 38.48713 -81.79254 37907 ft 425 kts 348°
2026-05-04 21:38 38.54552 -81.80203 37903 ft 425 kts 348°
2026-05-04 21:39 38.60444 -81.81166 37888 ft 425 kts 348°
2026-05-04 21:39 38.66316 -81.82131 37889 ft 425 kts 348°
2026-05-04 21:40 38.72174 -81.83099 37882 ft 426 kts 348°
2026-05-04 21:40 38.78052 -81.84071 37872 ft 426 kts 348°
2026-05-04 21:41 38.83937 -81.85046 37871 ft 426 kts 348°
2026-05-04 21:41 38.89841 -81.86028 37856 ft 427 kts 348°
2026-05-04 21:42 38.95739 -81.87009 37860 ft 427 kts 348°
2026-05-04 21:42 39.01641 -81.87994 37855 ft 427 kts 348°
2026-05-04 21:43 39.07559 -81.88980 37853 ft 427 kts 348°
2026-05-04 21:43 39.13436 -81.89964 37847 ft 427 kts 348°
2026-05-04 21:44 39.19312 -81.90949 37849 ft 427 kts 348°
2026-05-04 21:44 39.25192 -81.91934 37853 ft 428 kts 348°
2026-05-04 21:45 39.31114 -81.92931 37851 ft 427 kts 348°
2026-05-04 21:45 39.36998 -81.93922 37847 ft 427 kts 348°
2026-05-04 21:46 39.42882 -81.94914 37845 ft 427 kts 348°
2026-05-04 21:46 39.48812 -81.95917 37839 ft 427 kts 348°
2026-05-04 21:46 39.51733 -81.96411 37585 ft 427 kts 348°
2026-05-04 21:47 39.54681 -81.96912 37268 ft 424 kts 348°
2026-05-04 21:47 39.57590 -81.97405 36951 ft 421 kts 348°
2026-05-04 21:47 39.60497 -81.97898 36648 ft 418 kts 348°
2026-05-04 21:47 39.63385 -81.98390 36383 ft 418 kts 348°
2026-05-04 21:48 39.66280 -81.98885 36146 ft 418 kts 349°
2026-05-04 21:48 39.69171 -81.99377 35849 ft 419 kts 349°
2026-05-04 21:48 39.72068 -81.99780 35464 ft 420 kts 352°
2026-05-04 21:48 39.75018 -81.99985 35075 ft 423 kts 355°
2026-05-04 21:49 39.77959 -81.99982 34581 ft 425 kts 358°
2026-05-04 21:49 39.80963 -81.99761 33998 ft 427 kts
2026-05-04 21:49 39.83920 -81.99326 33414 ft 430 kts
2026-05-04 21:49 39.86863 -81.98693 32841 ft 433 kts
2026-05-04 21:50 39.89856 -81.97979 32257 ft 435 kts
2026-05-04 21:50 39.92823 -81.97257 31675 ft 437 kts
2026-05-04 21:50 39.95804 -81.96529 31096 ft 439 kts
2026-05-04 21:50 39.98811 -81.95798 30511 ft 437 kts
2026-05-04 21:51 40.01793 -81.95071 29890 ft 434 kts
2026-05-04 21:51 40.04763 -81.94346 29272 ft 431 kts
2026-05-04 21:51 40.07713 -81.93627 28682 ft 427 kts
2026-05-04 21:51 40.10624 -81.92921 28123 ft 423 kts
2026-05-04 21:52 40.13504 -81.92221 27587 ft 419 kts
2026-05-04 21:52 40.16344 -81.91531 27057 ft 416 kts
2026-05-04 21:52 40.19176 -81.90843 26523 ft 414 kts
2026-05-04 21:52 40.22014 -81.90154 25986 ft 411 kts
2026-05-04 21:53 40.24822 -81.89471 25478 ft 408 kts
2026-05-04 21:53 40.27600 -81.88796 25014 ft 406 kts
2026-05-04 21:53 40.30370 -81.88123 24549 ft 404 kts
2026-05-04 21:53 40.33101 -81.87456 24088 ft 401 kts
2026-05-04 21:54 40.35839 -81.86790 23684 ft 399 kts
2026-05-04 21:54 40.38561 -81.86147 23287 ft 397 kts
2026-05-04 21:54 40.41276 -81.85518 22879 ft 395 kts
2026-05-04 21:54 40.43985 -81.84891 22451 ft 392 kts
2026-05-04 21:55 40.46658 -81.84270 22003 ft 389 kts
2026-05-04 21:55 40.49312 -81.83652 21560 ft 387 kts
2026-05-04 21:55 40.51952 -81.83034 21118 ft 384 kts
2026-05-04 21:55 40.54584 -81.82418 20677 ft 381 kts
2026-05-04 21:56 40.57157 -81.81816 20240 ft 378 kts
2026-05-04 21:56 40.59746 -81.81212 19800 ft 376 kts
2026-05-04 21:56 40.62333 -81.80606 19322 ft 374 kts
2026-05-04 21:56 40.64868 -81.80013 18835 ft 371 kts
2026-05-04 21:57 40.67449 -81.79410 18339 ft 369 kts
2026-05-04 21:57 40.70033 -81.78804 17838 ft 366 kts
2026-05-04 21:57 40.72538 -81.78215 17351 ft 364 kts
2026-05-04 21:57 40.75052 -81.77625 16853 ft 361 kts
2026-05-04 21:58 40.77513 -81.77047 16388 ft 359 kts
2026-05-04 21:58 40.80063 -81.76447 15896 ft 356 kts
2026-05-04 21:58 40.82512 -81.75871 15414 ft 354 kts
2026-05-04 21:58 40.84919 -81.75305 14925 ft 351 kts
2026-05-04 21:59 40.87325 -81.74786 14443 ft 347 kts
2026-05-04 21:59 40.89777 -81.74477 13957 ft 342 kts 356°
2026-05-04 21:59 40.92178 -81.74348 13478 ft 339 kts 355°
2026-05-04 21:59 40.94557 -81.74257 13011 ft 336 kts 354°
2026-05-04 22:00 40.96917 -81.74171 12602 ft 334 kts 354°
2026-05-04 22:00 40.99291 -81.74080 12173 ft 333 kts 354°
2026-05-04 22:00 41.01705 -81.73986 11752 ft 332 kts 354°
2026-05-04 22:00 41.04082 -81.73889 11356 ft 331 kts 354°
2026-05-04 22:01 41.06456 -81.73791 10954 ft 330 kts 354°
2026-05-04 22:01 41.08821 -81.73696 10550 ft 328 kts 354°
2026-05-04 22:01 41.11143 -81.73601 10263 ft 321 kts 354°
2026-05-04 22:01 41.13379 -81.73507 10045 ft 311 kts 354°
2026-05-04 22:02 41.15669 -81.73412 9800 ft 301 kts 354°
2026-05-04 22:02 41.17770 -81.73327 9598 ft 293 kts 354°
2026-05-04 22:02 41.19838 -81.73247 9276 ft 291 kts 353°
2026-05-04 22:02 41.21954 -81.73168 8907 ft 291 kts 354°
2026-05-04 22:03 41.24005 -81.73087 8488 ft 290 kts 354°
2026-05-04 22:03 41.26026 -81.73006 8150 ft 290 kts 354°
2026-05-04 22:03 41.28061 -81.72923 7798 ft 290 kts 354°
2026-05-04 22:03 41.30077 -81.72841 7454 ft 289 kts 354°
2026-05-04 22:04 41.32106 -81.72757 7117 ft 286 kts 354°
2026-05-04 22:04 41.34084 -81.72672 7008 ft 273 kts 355°
2026-05-04 22:04 41.35948 -81.72587 6996 ft 257 kts 354°
2026-05-04 22:04 41.37716 -81.72469 6990 ft 251 kts
2026-05-04 22:05 41.39373 -81.71504 6972 ft 265 kts 38°
2026-05-04 22:05 41.40686 -81.69672 6813 ft 262 kts 46°
2026-05-04 22:05 41.41917 -81.67741 6425 ft 265 kts 47°
2026-05-04 22:05 41.43190 -81.65722 6080 ft 264 kts 47°
2026-05-04 22:06 41.44405 -81.63801 5764 ft 263 kts 47°
2026-05-04 22:06 41.45623 -81.61888 5457 ft 262 kts 48°
2026-05-04 22:06 41.46825 -81.60017 5157 ft 260 kts 47°
2026-05-04 22:06 41.48033 -81.58159 4847 ft 258 kts 45°
2026-05-04 22:07 41.49472 -81.56773 4522 ft 250 kts 14°
2026-05-04 22:07 41.51201 -81.56556 4259 ft 231 kts 339°
2026-05-04 22:07 41.52566 -81.57419 4068 ft 211 kts 316°
2026-05-04 22:07 41.53515 -81.58874 3834 ft 189 kts 283°
2026-05-04 22:08 41.53845 -81.60602 3637 ft 178 kts 274°
2026-05-04 22:08 41.54040 -81.62270 3426 ft 173 kts 271°
2026-05-04 22:08 41.54027 -81.63832 3211 ft 164 kts 251°
2026-05-04 22:08 41.53570 -81.65321 3036 ft 161 kts 238°
2026-05-04 22:09 41.52951 -81.66598 3013 ft 162 kts 234°
2026-05-04 22:09 41.52287 -81.67808 3007 ft 162 kts 232°
2026-05-04 22:09 41.51578 -81.69018 3005 ft 162 kts 231°
2026-05-04 22:09 41.50857 -81.70194 3006 ft 162 kts 230°
2026-05-04 22:10 41.50119 -81.71371 3001 ft 153 kts 230°
2026-05-04 22:10 41.49457 -81.72417 3041 ft 144 kts 230°
2026-05-04 22:10 41.48812 -81.73431 2862 ft 142 kts 229°
2026-05-04 22:10 41.48179 -81.74425 2697 ft 140 kts 230°
2026-05-04 22:11 41.47551 -81.75414 2523 ft 141 kts 229°
2026-05-04 22:11 41.46909 -81.76427 2345 ft 136 kts 229°
2026-05-04 22:11 41.46283 -81.77413 2213 ft 134 kts 228°
2026-05-04 22:11 41.45668 -81.78381 2019 ft 132 kts 228°
2026-05-04 22:12 41.45054 -81.79349 1829 ft 131 kts 229°
2026-05-04 22:12 41.44453 -81.80299 1647 ft 130 kts 227°
2026-05-04 22:12 41.43870 -81.81224 1447 ft 129 kts 228°
2026-05-04 22:12 41.43285 -81.82140 1325 ft 129 kts 227°
2026-05-04 22:13 41.42705 -81.83047 1161 ft 129 kts 228°
2026-05-04 22:13 41.42137 -81.83955 964 ft 126 kts 227°
2026-05-04 22:13 41.41584 -81.84824 803 ft 121 kts 227°
2026-05-04 22:13 41.41092 -81.85602 777 ft 94 kts 229°
2026-05-04 22:14 41.40777 -81.86098 773 ft 41 kts 229°
2026-05-04 22:14 41.40614 -81.86253 771 ft 20 kts 191°
2026-05-04 22:14 41.40517 -81.86204 771 ft 13 kts 144°
2026-05-04 22:14 41.40453 -81.86126 773 ft 11 kts 139°
2026-05-04 22:15 41.40395 -81.86060 774 ft 11 kts 140°
2026-05-04 22:15 41.40331 -81.85989 775 ft 11 kts 137°
2026-05-04 22:15 41.40320 -81.85906 777 ft 9 kts 60°
2026-05-04 22:15 41.40364 -81.85832 778 ft 10 kts 50°
2026-05-04 22:16 41.40417 -81.85747 779 ft 13 kts 50°
2026-05-04 22:16 41.40483 -81.85642 780 ft 14 kts 50°
2026-05-04 22:16 41.40549 -81.85538 781 ft 14 kts 50°
2026-05-04 22:16 41.40619 -81.85426 782 ft 17 kts 50°
2026-05-04 22:17 41.40708 -81.85287 782 ft 20 kts 49°
2026-05-04 22:17 41.40800 -81.85141 784 ft 19 kts 50°
2026-05-04 22:17 41.40888 -81.85001 785 ft 18 kts 50°
2026-05-04 22:17 41.40969 -81.84871 786 ft 17 kts 50°
2026-05-04 22:18 41.41047 -81.84750 787 ft 16 kts 49°
2026-05-04 22:18 41.41125 -81.84624 788 ft 17 kts 50°
2026-05-04 22:18 41.41204 -81.84500 788 ft 17 kts 50°
2026-05-04 22:18 41.41285 -81.84371 789 ft 17 kts 50°
2026-05-04 22:19 41.41359 -81.84252 789 ft 15 kts 50°
2026-05-04 22:19 41.41372 -81.84146 789 ft 10 kts 104°
2026-05-04 22:19 41.41392 -81.84055 790 ft 11 kts 51°
2026-05-04 22:19 41.41458 -81.83982 790 ft 12 kts 44°
2026-05-04 22:20 41.41512 -81.83888 790 ft 13 kts 67°
2026-05-04 22:20 41.41518 -81.83768 790 ft 11 kts 105°
2026-05-04 22:20 41.41475 -81.83687 791 ft 9 kts 139°
2026-05-04 22:20 41.41424 -81.83645 791 ft 7 kts 163°
2026-05-04 22:21 41.41368 -81.83642 791 ft 8 kts 189°
2026-05-04 22:21 41.41322 -81.83679 791 ft 7 kts 245°
2026-05-04 22:21 41.41328 -81.83730 791 ft 4 kts 288°
2026-05-04 22:21 41.41337 -81.83757 791 ft 0 kts 293°